Weather History for KUIN - December, 2012

Change the Weather History Date:

Saturday, December 22, 2012

  Actual Average Record
Temperature  
Mean Temperature 26 °F 28 °F  
Max Temperature 39 °F 36 °F 61 °F (1957)
Min Temperature 12 °F 20 °F -22 °F (1989)
Degree Days  
Heating Degree Days 39 37  
Month to date heating degree days 545 751  
Since 1 July heating degree days 1690 1851  
Cooling Degree Days 0 0  
Month to date cooling degree days 0 0  
Year to date cooling degree days 1575 1094  
Moisture  
Dew Point 16 °F    
Average Humidity 68    
Maximum Humidity 88    
Minimum Humidity 47    
Precipitation  
Precipitation 0.00 in 0.07 in 0.66 in (1988)
Month to date precipitation 1.36 1.71  
Year to date precipitation 25.62 36.79  
Sea Level Pressure  
Sea Level Pressure 30.12 in    
Wind  
Wind Speed 5 mph (SSE)    
Max Wind Speed 13 mph    
Max Gust Speed 15 mph    
Visibility 10 miles    
Events      
T = Trace of Precipitation, MM = Missing Value Source: NWS Daily Summary

Daily Weather History Graph

Daily Weather History Graph

Search for Another Location

Airport or City:

Trip Planner

Search our weather history database for the weather conditions in past years. The results will help you decide how hot, cold, wet, or windy it might be!

Date:

Astronomy

Dec. 22, 2012 Rise Set
Actual Time 7:23 AM CST 4:43 PM CST
Civil Twilight 6:53 AM CST 5:14 PM CST
Nautical Twilight 6:19 AM CST 5:48 PM CST
Astronomical Twilight 5:46 AM CST 6:21 PM CST
Moon 1:01 PM CST (12/22) 2:09 AM CST (12/22)
Length of Visible Light 10h 21m
Length of Day
9h 20m
Waxing Gibbous, 74% of the Moon is Illuminated
Dec 22
Waxing Gibbous
Dec 28
Full
Jan 4
Last Quarter
Jan 11
New
Jan 18
First Quarter

Hourly Weather History & Observations

Time (CST) Temp. Windchill Dew Point Humidity Pressure Visibility Wind Dir Wind Speed Gust Speed Precip Events Conditions
12:54 AM 16.0 °F 8.8 °F 10.9 °F 81% 30.30 in 10.0 mi WNW 4.6 mph - N/A   Clear
1:54 AM 19.0 °F - 12.0 °F 74% 30.30 in 10.0 mi Calm Calm - N/A   Clear
2:54 AM 18.0 °F - 12.0 °F 78% 30.30 in 10.0 mi Calm Calm - N/A   Clear
3:54 AM 18.0 °F - 10.9 °F 74% 30.28 in 10.0 mi Calm Calm - N/A   Clear
4:54 AM 17.1 °F - 10.9 °F 77% 30.26 in 10.0 mi Calm Calm - N/A   Clear
5:54 AM 12.9 °F 5.2 °F 9.0 °F 84% 30.28 in 10.0 mi South 4.6 mph - N/A   Clear
6:54 AM 14.0 °F 3.9 °F 10.0 °F 84% 30.26 in 10.0 mi SE 6.9 mph - N/A   Clear
7:54 AM 18.0 °F 8.7 °F 10.9 °F 74% 30.25 in 10.0 mi South 6.9 mph - N/A   Clear
8:54 AM 19.9 °F 11.1 °F 12.9 °F 74% 30.23 in 10.0 mi SSE 6.9 mph - N/A   Clear
9:54 AM 24.1 °F 15.2 °F 14.0 °F 65% 30.22 in 10.0 mi SSE 8.1 mph - N/A   Clear
10:54 AM 28.9 °F 20.4 °F 16.0 °F 58% 30.18 in 10.0 mi SSE 9.2 mph - N/A   Clear
11:54 AM 33.1 °F 24.9 °F 15.1 °F 48% 30.13 in 10.0 mi SSE 10.4 mph - N/A   Clear
12:54 PM 36.0 °F 30.3 °F 18.0 °F 48% 30.09 in 10.0 mi SSE 6.9 mph - N/A   Clear
1:54 PM 37.9 °F 31.5 °F 19.0 °F 47% 30.05 in 10.0 mi South 9.2 mph - N/A   Clear
2:54 PM 39.0 °F 32.8 °F 21.9 °F 50% 30.03 in 10.0 mi SSE 9.2 mph - N/A   Clear
3:54 PM 37.0 °F 31.0 °F 24.1 °F 59% 30.00 in 10.0 mi SSE 8.1 mph - N/A   Clear
4:54 PM 35.1 °F 29.3 °F 23.0 °F 61% 29.99 in 10.0 mi SSE 6.9 mph - N/A   Clear
5:54 PM 35.1 °F 29.3 °F 21.9 °F 59% 29.99 in 10.0 mi South 6.9 mph - N/A   Clear
6:54 PM 34.0 °F 28.8 °F 21.0 °F 59% 29.97 in 10.0 mi SSE 5.8 mph - N/A   Clear
7:54 PM 34.0 °F - 21.0 °F 59% 29.97 in 10.0 mi Calm Calm - N/A   Clear
8:54 PM 28.0 °F 22.8 °F 21.0 °F 75% 29.96 in 10.0 mi NNE 4.6 mph - N/A   Clear
9:54 PM 28.0 °F 22.8 °F 19.9 °F 72% 29.96 in 10.0 mi NNE 4.6 mph - N/A   Clear
10:54 PM 27.0 °F - 19.9 °F 75% 29.96 in 10.0 mi Calm Calm - N/A   Clear
11:54 PM 25.0 °F 20.7 °F 19.0 °F 78% 29.94 in 10.0 mi SSE 3.5 mph - N/A   Clear